Year,Month,Day,Hour,Minute,Value (Times are PST for temperature in C)
2017,06,25,00,00,18.70
2017,06,25,00,01,18.70
2017,06,25,00,02,18.70
2017,06,25,00,03,18.70
2017,06,25,00,04,18.70
2017,06,25,00,05,18.70
2017,06,25,00,06,18.80
2017,06,25,00,07,18.80
2017,06,25,00,08,18.80
2017,06,25,00,09,18.80
2017,06,25,00,10,18.80
2017,06,25,00,11,18.80
2017,06,25,00,12,18.80
2017,06,25,00,13,18.70
2017,06,25,00,14,18.70
2017,06,25,00,15,18.60
2017,06,25,00,16,18.60
2017,06,25,00,17,18.60
2017,06,25,00,18,18.50
2017,06,25,00,19,18.50
2017,06,25,00,20,18.40
2017,06,25,00,21,18.40
2017,06,25,00,22,18.40
2017,06,25,00,23,18.40
2017,06,25,00,24,18.30
2017,06,25,00,25,18.30
2017,06,25,00,26,18.30
2017,06,25,00,27,18.30
2017,06,25,00,28,18.30
2017,06,25,00,29,18.30
2017,06,25,00,30,18.20
2017,06,25,00,31,18.20
2017,06,25,00,32,18.20
2017,06,25,00,33,18.20
2017,06,25,00,34,18.20
2017,06,25,00,35,18.10
2017,06,25,00,36,18.10
2017,06,25,00,37,18.10
2017,06,25,00,38,18.00
2017,06,25,00,39,18.00
2017,06,25,00,40,18.00
2017,06,25,00,41,17.90
2017,06,25,00,42,17.90
2017,06,25,00,43,17.90
2017,06,25,00,44,17.90
2017,06,25,00,45,17.90
2017,06,25,00,46,17.90
2017,06,25,00,47,17.80
2017,06,25,00,48,17.80
2017,06,25,00,49,17.80
2017,06,25,00,50,17.80
2017,06,25,00,51,17.80
2017,06,25,00,52,17.70
2017,06,25,00,53,17.70
2017,06,25,00,54,17.70
2017,06,25,00,55,17.70
2017,06,25,00,56,17.70
2017,06,25,00,57,17.70
2017,06,25,00,58,17.60
2017,06,25,00,59,17.60
2017,06,25,01,00,17.60
2017,06,25,01,01,17.60
2017,06,25,01,02,17.60
2017,06,25,01,03,17.60
2017,06,25,01,04,17.50
2017,06,25,01,05,17.50
2017,06,25,01,06,17.50
2017,06,25,01,07,17.40
2017,06,25,01,08,17.40
2017,06,25,01,09,17.40
2017,06,25,01,10,17.30
2017,06,25,01,11,17.30
2017,06,25,01,12,17.20
2017,06,25,01,13,17.20
2017,06,25,01,14,17.20
2017,06,25,01,15,17.10
2017,06,25,01,16,17.10
2017,06,25,01,17,17.10
2017,06,25,01,18,17.10
2017,06,25,01,19,17.00
2017,06,25,01,20,17.00
2017,06,25,01,21,17.00
2017,06,25,01,22,17.00
2017,06,25,01,23,16.90
2017,06,25,01,24,16.90
2017,06,25,01,25,16.90
2017,06,25,01,26,16.90
2017,06,25,01,27,16.90
2017,06,25,01,28,16.90
2017,06,25,01,29,16.90
2017,06,25,01,30,16.90
2017,06,25,01,31,16.90
2017,06,25,01,32,16.90
2017,06,25,01,33,16.90
2017,06,25,01,34,16.90
2017,06,25,01,35,16.90
2017,06,25,01,36,16.90
2017,06,25,01,37,16.90
2017,06,25,01,38,16.90
2017,06,25,01,39,16.80
2017,06,25,01,40,16.80
2017,06,25,01,41,16.80
2017,06,25,01,42,16.80
2017,06,25,01,43,16.80
2017,06,25,01,44,16.80
2017,06,25,01,45,16.70
2017,06,25,01,46,16.70
2017,06,25,01,47,16.70
2017,06,25,01,48,16.70
2017,06,25,01,49,16.70
2017,06,25,01,50,16.70
2017,06,25,01,51,16.70
2017,06,25,01,52,16.70
2017,06,25,01,53,16.60
2017,06,25,01,54,16.70
2017,06,25,01,55,16.60
2017,06,25,01,56,16.60
2017,06,25,01,57,16.60
2017,06,25,01,58,16.60
2017,06,25,01,59,16.60
2017,06,25,02,00,16.60
2017,06,25,02,01,16.50
2017,06,25,02,02,16.50
2017,06,25,02,03,16.50
2017,06,25,02,04,16.40
2017,06,25,02,05,16.40
2017,06,25,02,06,16.40
2017,06,25,02,07,16.40
2017,06,25,02,08,16.40
2017,06,25,02,09,16.30
2017,06,25,02,10,16.30
2017,06,25,02,11,16.30
2017,06,25,02,12,16.20
2017,06,25,02,13,16.20
2017,06,25,02,14,16.20
2017,06,25,02,15,16.20
2017,06,25,02,16,16.20
2017,06,25,02,17,16.20
2017,06,25,02,18,16.20
2017,06,25,02,19,16.20
2017,06,25,02,20,16.20
2017,06,25,02,21,16.20
2017,06,25,02,22,16.20
2017,06,25,02,23,16.20
2017,06,25,02,24,16.20
2017,06,25,02,25,16.20
2017,06,25,02,26,16.20
2017,06,25,02,27,16.20
2017,06,25,02,28,16.20
2017,06,25,02,29,16.10
2017,06,25,02,30,16.10
2017,06,25,02,31,16.10
2017,06,25,02,32,16.00
2017,06,25,02,33,16.00
2017,06,25,02,34,16.00
2017,06,25,02,35,15.90
2017,06,25,02,36,15.90
2017,06,25,02,37,15.90
2017,06,25,02,38,15.90
2017,06,25,02,39,15.90
2017,06,25,02,40,15.90
2017,06,25,02,41,15.90
2017,06,25,02,42,15.90
2017,06,25,02,43,15.90
2017,06,25,02,44,15.90
2017,06,25,02,45,15.90
2017,06,25,02,46,15.90
2017,06,25,02,47,15.90
2017,06,25,02,48,15.90
2017,06,25,02,49,15.90
2017,06,25,02,50,15.90
2017,06,25,02,51,15.90
2017,06,25,02,52,15.90
2017,06,25,02,53,15.90
2017,06,25,02,54,15.90
2017,06,25,02,55,15.80
2017,06,25,02,56,15.80
2017,06,25,02,57,15.80
2017,06,25,02,58,15.80
2017,06,25,02,59,15.80
2017,06,25,03,00,15.80
2017,06,25,03,01,15.80
2017,06,25,03,02,15.80
2017,06,25,03,03,15.70
2017,06,25,03,04,15.70
2017,06,25,03,05,15.70
2017,06,25,03,06,15.70
2017,06,25,03,07,15.70
2017,06,25,03,08,15.60
2017,06,25,03,09,15.60
2017,06,25,03,10,15.60
2017,06,25,03,11,15.60
2017,06,25,03,12,15.60
2017,06,25,03,13,15.60
2017,06,25,03,14,15.60
2017,06,25,03,15,15.60
2017,06,25,03,16,15.60
2017,06,25,03,17,15.60
2017,06,25,03,18,15.60
2017,06,25,03,19,15.60
2017,06,25,03,20,15.60
2017,06,25,03,21,15.60
2017,06,25,03,22,15.70
2017,06,25,03,23,15.70
2017,06,25,03,24,15.70
2017,06,25,03,25,15.80
2017,06,25,03,26,15.80
2017,06,25,03,27,15.80
2017,06,25,03,28,15.90
2017,06,25,03,29,15.90
2017,06,25,03,30,15.90
2017,06,25,03,31,15.90
2017,06,25,03,32,15.80
2017,06,25,03,33,15.80
2017,06,25,03,34,15.80
2017,06,25,03,35,15.80
2017,06,25,03,36,15.80
2017,06,25,03,37,15.80
2017,06,25,03,38,15.80
2017,06,25,03,39,15.80
2017,06,25,03,40,15.80
2017,06,25,03,41,15.80
2017,06,25,03,42,15.80
2017,06,25,03,43,15.80
2017,06,25,03,44,15.80
2017,06,25,03,45,15.80
2017,06,25,03,46,15.80
2017,06,25,03,47,15.80
2017,06,25,03,48,15.80
2017,06,25,03,49,15.80
2017,06,25,03,50,15.80
2017,06,25,03,51,15.80
2017,06,25,03,52,15.70
2017,06,25,03,53,15.70
2017,06,25,03,54,15.70
2017,06,25,03,55,15.70
2017,06,25,03,56,15.70
2017,06,25,03,57,15.70
2017,06,25,03,58,15.60
2017,06,25,03,59,15.60
2017,06,25,04,00,15.60
2017,06,25,04,01,15.60
2017,06,25,04,02,15.60
2017,06,25,04,03,15.50
2017,06,25,04,04,15.50
2017,06,25,04,05,15.50
2017,06,25,04,06,15.50
2017,06,25,04,07,15.50
2017,06,25,04,08,15.40
2017,06,25,04,09,15.40
2017,06,25,04,10,15.40
2017,06,25,04,11,15.40
2017,06,25,04,12,15.40
2017,06,25,04,13,15.40
2017,06,25,04,14,15.40
2017,06,25,04,15,15.40
2017,06,25,04,16,15.40
2017,06,25,04,17,15.40
2017,06,25,04,18,15.40
2017,06,25,04,19,15.40
2017,06,25,04,20,15.40
2017,06,25,04,21,15.40
2017,06,25,04,22,15.30
2017,06,25,04,23,15.30
2017,06,25,04,24,15.30
2017,06,25,04,25,15.30
2017,06,25,04,26,15.30
2017,06,25,04,27,15.30
2017,06,25,04,28,15.30
2017,06,25,04,29,15.30
2017,06,25,04,30,15.30
2017,06,25,04,31,15.30
2017,06,25,04,32,15.20
2017,06,25,04,33,15.20
2017,06,25,04,34,15.20
2017,06,25,04,35,15.20
2017,06,25,04,36,15.20
2017,06,25,04,37,15.10
2017,06,25,04,38,15.10
2017,06,25,04,39,15.10
2017,06,25,04,40,15.10
2017,06,25,04,41,15.10
2017,06,25,04,42,15.10
2017,06,25,04,43,15.10
2017,06,25,04,44,15.10
2017,06,25,04,45,15.10
2017,06,25,04,46,15.10
2017,06,25,04,47,15.10
2017,06,25,04,48,15.10
2017,06,25,04,49,15.10
2017,06,25,04,50,15.10
2017,06,25,04,51,15.10
2017,06,25,04,52,15.00
2017,06,25,04,53,15.00
2017,06,25,04,54,15.00
2017,06,25,04,55,15.00
2017,06,25,04,56,15.00
2017,06,25,04,57,15.00
2017,06,25,04,58,15.00
2017,06,25,04,59,15.00
2017,06,25,05,00,15.00
2017,06,25,05,01,15.00
2017,06,25,05,02,15.00
2017,06,25,05,03,15.00
2017,06,25,05,04,15.00
2017,06,25,05,05,15.00
2017,06,25,05,06,15.00
2017,06,25,05,07,15.00
2017,06,25,05,08,15.00
2017,06,25,05,09,15.00
2017,06,25,05,10,15.00
2017,06,25,05,11,14.90
2017,06,25,05,12,14.90
2017,06,25,05,13,14.90
2017,06,25,05,14,14.90
2017,06,25,05,15,14.90
2017,06,25,05,16,14.90
2017,06,25,05,17,14.90
2017,06,25,05,18,14.90
2017,06,25,05,19,14.90
2017,06,25,05,20,14.90
2017,06,25,05,21,14.90
2017,06,25,05,22,14.90
2017,06,25,05,23,14.90
2017,06,25,05,24,15.00
2017,06,25,05,25,14.90
2017,06,25,05,26,14.90
2017,06,25,05,27,14.90
2017,06,25,05,28,14.90
2017,06,25,05,29,14.90
2017,06,25,05,30,14.90
2017,06,25,05,31,14.90
2017,06,25,05,32,14.90
2017,06,25,05,33,14.80
2017,06,25,05,34,14.80
2017,06,25,05,35,14.80
2017,06,25,05,36,14.80
2017,06,25,05,37,14.80
2017,06,25,05,38,14.80
2017,06,25,05,39,14.80
2017,06,25,05,40,14.80
2017,06,25,05,41,14.80
2017,06,25,05,42,14.80
2017,06,25,05,43,14.80
2017,06,25,05,44,14.80
2017,06,25,05,45,14.80
2017,06,25,05,46,14.80
2017,06,25,05,47,14.80
2017,06,25,05,48,14.90
2017,06,25,05,49,14.90
2017,06,25,05,50,14.90
2017,06,25,05,51,15.00
2017,06,25,05,52,15.00
2017,06,25,05,53,15.10
2017,06,25,05,54,15.10
2017,06,25,05,55,15.10
2017,06,25,05,56,15.10
2017,06,25,05,57,15.20
2017,06,25,05,58,15.20
2017,06,25,05,59,15.20
2017,06,25,06,00,15.30
2017,06,25,06,01,15.30
2017,06,25,06,02,15.30
2017,06,25,06,03,15.40
2017,06,25,06,04,15.40
2017,06,25,06,05,15.40
2017,06,25,06,06,15.40
2017,06,25,06,07,15.50
2017,06,25,06,08,15.50
2017,06,25,06,09,15.50
2017,06,25,06,10,15.60
2017,06,25,06,11,15.60
2017,06,25,06,12,15.60
2017,06,25,06,13,15.60
2017,06,25,06,14,15.60
2017,06,25,06,15,15.70
2017,06,25,06,16,15.70
2017,06,25,06,17,15.70
2017,06,25,06,18,15.70
2017,06,25,06,19,15.70
2017,06,25,06,20,15.70
2017,06,25,06,21,15.80
2017,06,25,06,22,15.80
2017,06,25,06,23,15.80
2017,06,25,06,24,15.90
2017,06,25,06,25,16.00
2017,06,25,06,26,16.10
2017,06,25,06,27,16.20
2017,06,25,06,28,16.30
2017,06,25,06,29,16.40
2017,06,25,06,30,16.40
2017,06,25,06,31,16.50
2017,06,25,06,32,16.60
2017,06,25,06,33,16.60
2017,06,25,06,34,16.70
2017,06,25,06,35,16.70
2017,06,25,06,36,16.80
2017,06,25,06,37,16.80
2017,06,25,06,38,16.90
2017,06,25,06,39,17.00
2017,06,25,06,40,17.10
2017,06,25,06,41,17.10
2017,06,25,06,42,17.20
2017,06,25,06,43,17.30
2017,06,25,06,44,17.40
2017,06,25,06,45,17.40
2017,06,25,06,46,17.50
2017,06,25,06,47,17.60
2017,06,25,06,48,17.70
2017,06,25,06,49,17.70
2017,06,25,06,50,17.80
2017,06,25,06,51,17.80
2017,06,25,06,52,17.90
2017,06,25,06,53,17.90
2017,06,25,06,54,17.90
2017,06,25,06,55,17.90
2017,06,25,06,56,18.00
2017,06,25,06,57,18.00
2017,06,25,06,58,18.10
2017,06,25,06,59,18.10
2017,06,25,07,00,18.10
2017,06,25,07,01,18.20
2017,06,25,07,02,18.20
2017,06,25,07,03,18.20
2017,06,25,07,04,18.30
2017,06,25,07,05,18.30
2017,06,25,07,06,18.30
2017,06,25,07,07,18.30
2017,06,25,07,08,18.30
2017,06,25,07,09,18.30
2017,06,25,07,10,18.40
2017,06,25,07,11,18.50
2017,06,25,07,12,18.50
2017,06,25,07,13,18.60
2017,06,25,07,14,18.70
2017,06,25,07,15,18.80
2017,06,25,07,16,18.80
2017,06,25,07,17,18.90
2017,06,25,07,18,18.90
2017,06,25,07,19,19.00
2017,06,25,07,20,19.10
2017,06,25,07,21,19.20
2017,06,25,07,22,19.30
2017,06,25,07,23,19.40
2017,06,25,07,24,19.50
2017,06,25,07,25,19.60
2017,06,25,07,26,19.70
2017,06,25,07,27,19.80
2017,06,25,07,28,19.80
2017,06,25,07,29,19.80
2017,06,25,07,30,19.80
2017,06,25,07,31,19.80
2017,06,25,07,32,19.80
2017,06,25,07,33,19.80
2017,06,25,07,34,19.80
2017,06,25,07,35,19.70
2017,06,25,07,36,19.70
2017,06,25,07,37,19.70
2017,06,25,07,38,19.70
2017,06,25,07,39,19.70
2017,06,25,07,40,19.70
2017,06,25,07,41,19.70
2017,06,25,07,42,19.70
2017,06,25,07,43,19.70
2017,06,25,07,44,19.80
2017,06,25,07,45,19.80
2017,06,25,07,46,19.90
2017,06,25,07,47,19.90
2017,06,25,07,48,20.00
2017,06,25,07,49,20.00
2017,06,25,07,50,20.10
2017,06,25,07,51,20.10
2017,06,25,07,52,20.20
2017,06,25,07,53,20.20
2017,06,25,07,54,20.30
2017,06,25,07,55,20.30
2017,06,25,07,56,20.40
2017,06,25,07,57,20.50
2017,06,25,07,58,20.50
2017,06,25,07,59,20.60
2017,06,25,08,00,20.70
2017,06,25,08,01,20.90
2017,06,25,08,02,21.00
2017,06,25,08,03,21.20
2017,06,25,08,04,21.40
2017,06,25,08,05,21.60
2017,06,25,08,06,21.80
2017,06,25,08,07,21.90
2017,06,25,08,08,22.00
2017,06,25,08,09,22.20
2017,06,25,08,10,22.30
2017,06,25,08,11,22.40
2017,06,25,08,12,22.50
2017,06,25,08,13,22.70
2017,06,25,08,14,22.80
2017,06,25,08,15,22.90
2017,06,25,08,16,23.00
2017,06,25,08,17,23.20
2017,06,25,08,18,23.30
2017,06,25,08,19,23.40
2017,06,25,08,20,23.50
2017,06,25,08,21,23.60
2017,06,25,08,22,23.60
2017,06,25,08,23,23.70
2017,06,25,08,24,23.70
2017,06,25,08,25,23.80
2017,06,25,08,26,23.80
2017,06,25,08,27,23.80
2017,06,25,08,28,23.80
2017,06,25,08,29,23.90
2017,06,25,08,30,23.90
2017,06,25,08,31,23.90
2017,06,25,08,32,24.00
2017,06,25,08,33,24.00
2017,06,25,08,34,24.10
2017,06,25,08,35,24.10
2017,06,25,08,36,24.10
2017,06,25,08,37,24.10
2017,06,25,08,38,24.20
2017,06,25,08,39,24.20
2017,06,25,08,40,24.20
2017,06,25,08,41,24.20
2017,06,25,08,42,24.20
2017,06,25,08,43,24.30
2017,06,25,08,44,24.30
2017,06,25,08,45,24.30
2017,06,25,08,46,24.40
2017,06,25,08,47,24.40
2017,06,25,08,48,24.40
2017,06,25,08,49,24.50
2017,06,25,08,50,24.50
2017,06,25,08,51,24.50
2017,06,25,08,52,24.50
2017,06,25,08,53,24.60
2017,06,25,08,54,24.60
2017,06,25,08,55,24.60
2017,06,25,08,56,24.60
2017,06,25,08,57,24.60
2017,06,25,08,58,24.70
2017,06,25,08,59,24.70
2017,06,25,09,00,24.80
2017,06,25,09,01,24.80
2017,06,25,09,02,24.80
2017,06,25,09,03,24.90
2017,06,25,09,04,24.90
2017,06,25,09,05,24.90
2017,06,25,09,06,24.90
2017,06,25,09,07,25.00
2017,06,25,09,08,25.00
2017,06,25,09,09,25.10
2017,06,25,09,10,25.10
2017,06,25,09,11,25.10
2017,06,25,09,12,25.20
2017,06,25,09,13,25.20
2017,06,25,09,14,25.20
2017,06,25,09,15,25.30
2017,06,25,09,16,25.20
2017,06,25,09,17,25.30
2017,06,25,09,18,25.30
2017,06,25,09,19,25.40
2017,06,25,09,20,25.40
2017,06,25,09,21,25.50
2017,06,25,09,22,25.50
2017,06,25,09,23,25.60
2017,06,25,09,24,25.70
2017,06,25,09,25,25.70
2017,06,25,09,26,25.80
2017,06,25,09,27,25.90
2017,06,25,09,28,26.00
2017,06,25,09,29,26.00
2017,06,25,09,30,26.10
2017,06,25,09,31,26.10
2017,06,25,09,32,26.10
2017,06,25,09,33,26.00
2017,06,25,09,34,25.90
2017,06,25,09,35,25.90
2017,06,25,09,36,25.90
2017,06,25,09,37,25.90
2017,06,25,09,38,25.90
2017,06,25,09,39,25.90
2017,06,25,09,40,25.90
2017,06,25,09,41,25.90
2017,06,25,09,42,25.90
2017,06,25,09,43,25.90
2017,06,25,09,44,26.00
2017,06,25,09,45,26.00
2017,06,25,09,46,26.00
2017,06,25,09,47,26.00
2017,06,25,09,48,26.00
2017,06,25,09,49,26.00
2017,06,25,09,50,26.00
2017,06,25,09,51,26.00
2017,06,25,09,52,26.10
2017,06,25,09,53,26.20
2017,06,25,09,54,26.20
2017,06,25,09,55,26.30
2017,06,25,09,56,26.30
2017,06,25,09,57,26.40
2017,06,25,09,58,26.40
2017,06,25,09,59,26.40
2017,06,25,10,00,26.50
2017,06,25,10,01,26.50
2017,06,25,10,02,26.50
2017,06,25,10,03,26.50
2017,06,25,10,04,26.40
2017,06,25,10,05,26.30
2017,06,25,10,06,26.30
2017,06,25,10,07,26.30
2017,06,25,10,08,26.30
2017,06,25,10,09,26.30
2017,06,25,10,10,26.30
2017,06,25,10,11,26.30
2017,06,25,10,12,26.40
2017,06,25,10,13,26.50
2017,06,25,10,14,26.50
2017,06,25,10,15,26.50
2017,06,25,10,16,26.60
2017,06,25,10,17,26.60
2017,06,25,10,18,26.60
2017,06,25,10,19,26.50
2017,06,25,10,20,26.50
2017,06,25,10,21,26.50
2017,06,25,10,22,26.60
2017,06,25,10,23,26.60
2017,06,25,10,24,26.60
2017,06,25,10,25,26.60
2017,06,25,10,26,26.50
2017,06,25,10,27,26.50
2017,06,25,10,28,26.40
2017,06,25,10,29,26.40
2017,06,25,10,30,26.40
2017,06,25,10,31,26.40
2017,06,25,10,32,26.40
2017,06,25,10,33,26.40
2017,06,25,10,34,26.50
2017,06,25,10,35,26.60
2017,06,25,10,36,26.70
2017,06,25,10,37,26.80
2017,06,25,10,38,26.90
2017,06,25,10,39,27.00
2017,06,25,10,40,27.10
2017,06,25,10,41,27.20
2017,06,25,10,42,27.30
2017,06,25,10,43,27.30
2017,06,25,10,44,27.30
2017,06,25,10,45,27.40
2017,06,25,10,46,27.40
2017,06,25,10,47,27.40
2017,06,25,10,48,27.40
2017,06,25,10,49,27.40
2017,06,25,10,50,27.30
2017,06,25,10,51,27.30
2017,06,25,10,52,27.20
2017,06,25,10,53,27.20
2017,06,25,10,54,27.20
2017,06,25,10,55,27.20
2017,06,25,10,56,27.20
2017,06,25,10,57,27.20
2017,06,25,10,58,27.20
2017,06,25,10,59,27.10
2017,06,25,11,00,27.10
2017,06,25,11,01,27.10
2017,06,25,11,02,27.20
2017,06,25,11,03,27.20
2017,06,25,11,04,27.30
2017,06,25,11,05,27.30
2017,06,25,11,06,27.30
2017,06,25,11,07,27.30
2017,06,25,11,08,27.30
2017,06,25,11,09,27.20
2017,06,25,11,10,27.20
2017,06,25,11,11,27.10
2017,06,25,11,12,27.10
2017,06,25,11,13,27.10
2017,06,25,11,14,27.10
2017,06,25,11,15,27.10
2017,06,25,11,16,27.10
2017,06,25,11,17,27.00
2017,06,25,11,18,27.00
2017,06,25,11,19,27.00
2017,06,25,11,20,26.90
2017,06,25,11,21,26.90
2017,06,25,11,22,26.80
2017,06,25,11,23,26.80
2017,06,25,11,24,26.80
2017,06,25,11,25,26.80
2017,06,25,11,26,26.80
2017,06,25,11,27,26.80
2017,06,25,11,28,26.80
2017,06,25,11,29,26.90
2017,06,25,11,30,26.90
2017,06,25,11,31,26.90
2017,06,25,11,32,26.90
2017,06,25,11,33,26.90
2017,06,25,11,34,27.00
2017,06,25,11,35,27.00
2017,06,25,11,36,27.10
2017,06,25,11,37,27.10
2017,06,25,11,38,27.10
2017,06,25,11,39,27.10
2017,06,25,11,40,27.10
2017,06,25,11,41,27.00
2017,06,25,11,42,26.90
2017,06,25,11,43,26.80
2017,06,25,11,44,26.80
2017,06,25,11,45,26.80
2017,06,25,11,46,26.80
2017,06,25,11,47,26.80
2017,06,25,11,48,26.80
2017,06,25,11,49,26.80
2017,06,25,11,50,26.80
2017,06,25,11,51,26.80
2017,06,25,11,52,26.80
2017,06,25,11,53,26.80
2017,06,25,11,54,26.70
2017,06,25,11,55,26.80
2017,06,25,11,56,26.90
2017,06,25,11,57,27.00
2017,06,25,11,58,27.10
2017,06,25,11,59,27.10
2017,06,25,12,00,27.10
2017,06,25,12,01,27.10
2017,06,25,12,02,27.10
2017,06,25,12,03,27.10
2017,06,25,12,04,27.20
2017,06,25,12,05,27.30
2017,06,25,12,06,27.50
2017,06,25,12,07,27.60
2017,06,25,12,08,27.70
2017,06,25,12,09,27.70
2017,06,25,12,10,27.70
2017,06,25,12,11,27.60
2017,06,25,12,12,27.70
2017,06,25,12,13,27.70
2017,06,25,12,14,27.70
2017,06,25,12,15,27.70
2017,06,25,12,16,27.80
2017,06,25,12,17,27.80
2017,06,25,12,18,27.90
2017,06,25,12,19,27.90
2017,06,25,12,20,27.90
2017,06,25,12,21,27.80
2017,06,25,12,22,27.80
2017,06,25,12,23,27.80
2017,06,25,12,24,27.80
2017,06,25,12,25,27.90
2017,06,25,12,26,27.90
2017,06,25,12,27,27.90
2017,06,25,12,28,27.90
2017,06,25,12,29,27.90
2017,06,25,12,30,27.90
2017,06,25,12,31,28.00
2017,06,25,12,32,27.90
2017,06,25,12,33,27.90
2017,06,25,12,34,27.90
2017,06,25,12,35,27.90
2017,06,25,12,36,27.90
2017,06,25,12,37,27.90
2017,06,25,12,38,27.90
2017,06,25,12,39,28.00
2017,06,25,12,40,28.10
2017,06,25,12,41,28.10
2017,06,25,12,42,28.10
2017,06,25,12,43,28.10
2017,06,25,12,44,28.10
2017,06,25,12,45,28.00
2017,06,25,12,46,27.90
2017,06,25,12,47,27.90
2017,06,25,12,48,27.90
2017,06,25,12,49,27.90
2017,06,25,12,50,27.80
2017,06,25,12,51,27.80
2017,06,25,12,52,27.80
2017,06,25,12,53,27.80
2017,06,25,12,54,27.80
2017,06,25,12,55,27.80
2017,06,25,12,56,27.80
2017,06,25,12,57,27.80
2017,06,25,12,58,27.80
2017,06,25,12,59,27.80
2017,06,25,13,00,27.60
2017,06,25,13,01,27.50
2017,06,25,13,02,27.50
2017,06,25,13,03,27.40
2017,06,25,13,04,27.40
2017,06,25,13,05,27.40
2017,06,25,13,06,27.50
2017,06,25,13,07,27.60
2017,06,25,13,08,27.70
2017,06,25,13,09,27.80
2017,06,25,13,10,27.80
2017,06,25,13,11,27.80
2017,06,25,13,12,27.90
2017,06,25,13,13,27.90
2017,06,25,13,14,27.90
2017,06,25,13,15,27.80
2017,06,25,13,16,27.80
2017,06,25,13,17,27.70
2017,06,25,13,18,27.70
2017,06,25,13,19,27.70
2017,06,25,13,20,27.60
2017,06,25,13,21,27.60
2017,06,25,13,22,27.70
2017,06,25,13,23,27.80
2017,06,25,13,24,27.90
2017,06,25,13,25,27.90
2017,06,25,13,26,28.00
2017,06,25,13,27,28.10
2017,06,25,13,28,28.20
2017,06,25,13,29,28.30
2017,06,25,13,30,28.40
2017,06,25,13,31,28.40
2017,06,25,13,32,28.50
2017,06,25,13,33,28.60
2017,06,25,13,34,28.70
2017,06,25,13,35,28.80
2017,06,25,13,36,28.90
2017,06,25,13,37,29.00
2017,06,25,13,38,29.10
2017,06,25,13,39,29.10
2017,06,25,13,40,29.10
2017,06,25,13,41,29.10
2017,06,25,13,42,29.10
2017,06,25,13,43,29.20
2017,06,25,13,44,29.30
2017,06,25,13,45,29.40
2017,06,25,13,46,29.50
2017,06,25,13,47,29.60
2017,06,25,13,48,29.70
2017,06,25,13,49,29.70
2017,06,25,13,50,29.70
2017,06,25,13,51,29.70
2017,06,25,13,52,29.70
2017,06,25,13,53,29.70
2017,06,25,13,54,29.70
2017,06,25,13,55,29.80
2017,06,25,13,56,29.90
2017,06,25,13,57,29.90
2017,06,25,13,58,30.00
2017,06,25,13,59,30.00
2017,06,25,14,00,30.10
2017,06,25,14,01,30.30
2017,06,25,14,02,30.50
2017,06,25,14,03,30.70
2017,06,25,14,04,30.80
2017,06,25,14,05,30.90
2017,06,25,14,06,30.90
2017,06,25,14,07,31.00
2017,06,25,14,08,31.10
2017,06,25,14,09,31.10
2017,06,25,14,10,31.20
2017,06,25,14,11,31.10
2017,06,25,14,12,31.10
2017,06,25,14,13,31.00
2017,06,25,14,14,31.00
2017,06,25,14,15,30.90
2017,06,25,14,16,31.00
2017,06,25,14,17,31.00
2017,06,25,14,18,31.00
2017,06,25,14,19,31.10
2017,06,25,14,20,31.20
2017,06,25,14,21,31.20
2017,06,25,14,22,31.20
2017,06,25,14,23,31.20
2017,06,25,14,24,31.20
2017,06,25,14,25,31.30
2017,06,25,14,26,31.40
2017,06,25,14,27,31.40
2017,06,25,14,28,31.50
2017,06,25,14,29,31.50
2017,06,25,14,30,31.50
2017,06,25,14,31,31.50
2017,06,25,14,32,31.50
2017,06,25,14,33,31.50
2017,06,25,14,34,31.50
2017,06,25,14,35,31.40
2017,06,25,14,36,31.30
2017,06,25,14,37,31.30
2017,06,25,14,38,31.40
2017,06,25,14,39,31.40
2017,06,25,14,40,31.50
2017,06,25,14,41,31.50
2017,06,25,14,42,31.60
2017,06,25,14,43,31.50
2017,06,25,14,44,31.50
2017,06,25,14,45,31.40
2017,06,25,14,46,31.40
2017,06,25,14,47,31.30
2017,06,25,14,48,31.30
2017,06,25,14,49,31.30
2017,06,25,14,50,31.30
2017,06,25,14,51,31.20
2017,06,25,14,52,31.20
2017,06,25,14,53,31.20
2017,06,25,14,54,31.20
2017,06,25,14,55,31.30
2017,06,25,14,56,31.20
2017,06,25,14,57,31.10
2017,06,25,14,58,30.90
2017,06,25,14,59,30.40
2017,06,25,15,00,29.80
2017,06,25,15,01,29.30
2017,06,25,15,02,28.80
2017,06,25,15,03,28.40
2017,06,25,15,04,28.10
2017,06,25,15,05,27.80
2017,06,25,15,06,27.40
2017,06,25,15,07,27.10
2017,06,25,15,08,26.80
2017,06,25,15,09,26.60
2017,06,25,15,10,26.50
2017,06,25,15,11,26.40
2017,06,25,15,12,26.30
2017,06,25,15,13,26.20
2017,06,25,15,14,26.20
2017,06,25,15,15,26.10
2017,06,25,15,16,26.00
2017,06,25,15,17,25.90
2017,06,25,15,18,25.80
2017,06,25,15,19,25.70
2017,06,25,15,20,25.60
2017,06,25,15,21,25.50
2017,06,25,15,22,25.30
2017,06,25,15,23,25.30
2017,06,25,15,24,25.30
2017,06,25,15,25,25.20
2017,06,25,15,26,25.30
2017,06,25,15,27,25.20
2017,06,25,15,28,25.20
2017,06,25,15,29,25.20
2017,06,25,15,30,25.20
2017,06,25,15,31,25.20
2017,06,25,15,32,25.20
2017,06,25,15,33,25.20
2017,06,25,15,34,25.30
2017,06,25,15,35,25.30
2017,06,25,15,36,25.30
2017,06,25,15,37,25.30
2017,06,25,15,38,25.30
2017,06,25,15,39,25.40
2017,06,25,15,40,25.50
2017,06,25,15,41,25.60
2017,06,25,15,42,25.60
2017,06,25,15,43,25.70
2017,06,25,15,44,25.80
2017,06,25,15,45,25.80
2017,06,25,15,46,25.90
2017,06,25,15,47,26.00
2017,06,25,15,48,26.10
2017,06,25,15,49,26.10
2017,06,25,15,50,26.20
2017,06,25,15,51,26.30
2017,06,25,15,52,26.40
2017,06,25,15,53,26.50
2017,06,25,15,54,26.70
2017,06,25,15,55,26.80
2017,06,25,15,56,27.00
2017,06,25,15,57,27.20
2017,06,25,15,58,27.30
2017,06,25,15,59,27.40
2017,06,25,16,00,27.50
2017,06,25,16,01,27.70
2017,06,25,16,02,27.80
2017,06,25,16,03,27.90
2017,06,25,16,04,27.90
2017,06,25,16,05,28.00
2017,06,25,16,06,27.90
2017,06,25,16,07,27.80
2017,06,25,16,08,27.60
2017,06,25,16,09,27.50
2017,06,25,16,10,27.50
2017,06,25,16,11,27.50
2017,06,25,16,12,27.50
2017,06,25,16,13,27.50
2017,06,25,16,14,27.50
2017,06,25,16,15,27.50
2017,06,25,16,16,27.50
2017,06,25,16,17,27.50
2017,06,25,16,18,27.60
2017,06,25,16,19,27.60
2017,06,25,16,20,27.60
2017,06,25,16,21,27.60
2017,06,25,16,22,27.60
2017,06,25,16,23,27.60
2017,06,25,16,24,27.70
2017,06,25,16,25,27.80
2017,06,25,16,26,27.90
2017,06,25,16,27,27.90
2017,06,25,16,28,28.00
2017,06,25,16,29,28.10
2017,06,25,16,30,28.10
2017,06,25,16,31,28.20
2017,06,25,16,32,28.20
2017,06,25,16,33,28.20
2017,06,25,16,34,28.30
2017,06,25,16,35,28.40
2017,06,25,16,36,28.50
2017,06,25,16,37,28.60
2017,06,25,16,38,28.60
2017,06,25,16,39,28.70
2017,06,25,16,40,28.80
2017,06,25,16,41,28.90
2017,06,25,16,42,28.90
2017,06,25,16,43,29.00
2017,06,25,16,44,29.10
2017,06,25,16,45,29.10
2017,06,25,16,46,29.10
2017,06,25,16,47,29.00
2017,06,25,16,48,29.10
2017,06,25,16,49,29.10
2017,06,25,16,50,29.00
2017,06,25,16,51,29.00
2017,06,25,16,52,28.80
2017,06,25,16,53,28.70
2017,06,25,16,54,28.70
2017,06,25,16,55,28.60
2017,06,25,16,56,28.50
2017,06,25,16,57,28.40
2017,06,25,16,58,28.30
2017,06,25,16,59,28.30
2017,06,25,17,00,28.30
2017,06,25,17,01,28.20
2017,06,25,17,02,28.20
2017,06,25,17,03,28.10
2017,06,25,17,04,28.10
2017,06,25,17,05,28.00
2017,06,25,17,06,27.90
2017,06,25,17,07,27.90
2017,06,25,17,08,27.90
2017,06,25,17,09,27.90
2017,06,25,17,10,27.90
2017,06,25,17,11,28.00
2017,06,25,17,12,28.00
2017,06,25,17,13,28.00
2017,06,25,17,14,28.00
2017,06,25,17,15,28.00
2017,06,25,17,16,28.00
2017,06,25,17,17,28.00
2017,06,25,17,18,27.90
2017,06,25,17,19,28.00